When you browse on this site, cookies collect data to enhance your experience and personalize the content and advertising you see.
Visit our Privacy Policy to learn more. By continuing to use the site, you agree to this use of cookies and data.
  • In Deutschland
  • Länderverzeichnis
  • Für 7 Tage
  • Wassertemperatur
  • Wetterkarte
  • Widgets
  • user-avatar
    Anmelden

    Stündliche Wetter Losenets

    Heute, 25 Mai, Montag

    Zeit Temperatur Niederschläge Wind Luftdruck Luftfeuchtigkeit
    00:00 +15°C° 0 mm 2 m/S 763 mmHg 91%
    01:00 +15°C° 0 mm 2 m/S 762 mmHg 91%
    02:00 +14°C° 0 mm 3 m/S 762 mmHg 93%
    03:00 +13°C° 0.1 mm 3 m/S 762 mmHg 93%
    04:00 +13°C° 0.1 mm 4 m/S 762 mmHg 93%
    05:00 +12°C° 0.1 mm 4 m/S 762 mmHg 93%
    06:00 +13°C° 0 mm 4 m/S 763 mmHg 90%
    07:00 +14°C° 0 mm 4 m/S 763 mmHg 87%
    08:00 +14°C° 0 mm 4 m/S 763 mmHg 84%
    09:00 +15°C° 0 mm 4 m/S 763 mmHg 78%
    10:00 +17°C° 0 mm 3 m/S 763 mmHg 72%
    11:00 +18°C° 0 mm 3 m/S 763 mmHg 66%
    12:00 +18°C° 0.2 mm 3 m/S 762 mmHg 66%
    13:00 +18°C° 0.2 mm 2 m/S 762 mmHg 65%
    14:00 +19°C° 0.2 mm 2 m/S 762 mmHg 65%
    15:00 +18°C° 0.3 mm 2 m/S 762 mmHg 67%
    16:00 +18°C° 0.3 mm 2 m/S 762 mmHg 69%
    17:00 +18°C° 0.3 mm 2 m/S 762 mmHg 71%
    18:00 +16°C° 0.1 mm 2 m/S 761 mmHg 77%
    19:00 +15°C° 0.1 mm 2 m/S 761 mmHg 82%
    20:00 +13°C° 0.1 mm 2 m/S 761 mmHg 88%
    21:00 +13°C° 0 mm 2 m/S 761 mmHg 87%
    22:00 +12°C° 0 mm 2 m/S 762 mmHg 87%
    23:00 +12°C° 0 mm 2 m/S 762 mmHg 87%

    Morgen, 26 Mai, Dienstag

    Zeit Temperatur Niederschläge Wind Luftdruck Luftfeuchtigkeit
    00:00 +12°C° 0 mm 2 m/S 761 mmHg 87%
    01:00 +12°C° 0 mm 2 m/S 761 mmHg 87%
    02:00 +10°C° 0 mm 2 m/S 761 mmHg 87%
    03:00 +10°C° 0 mm 2 m/S 761 mmHg 88%
    04:00 +10°C° 0 mm 2 m/S 761 mmHg 89%
    05:00 +10°C° 0 mm 2 m/S 761 mmHg 89%
    06:00 +13°C° 0 mm 2 m/S 761 mmHg 83%
    07:00 +15°C° 0 mm 2 m/S 761 mmHg 77%
    08:00 +17°C° 0 mm 2 m/S 761 mmHg 71%
    09:00 +17°C° 0.2 mm 2 m/S 761 mmHg 70%
    10:00 +18°C° 0.2 mm 2 m/S 761 mmHg 69%
    11:00 +19°C° 0.2 mm 2 m/S 761 mmHg 68%
    12:00 +19°C° 0.2 mm 2 m/S 761 mmHg 68%
    13:00 +19°C° 0.2 mm 2 m/S 760 mmHg 68%
    14:00 +19°C° 0.2 mm 2 m/S 760 mmHg 69%
    15:00 +19°C° 0.1 mm 2 m/S 760 mmHg 69%
    16:00 +18°C° 0.1 mm 2 m/S 760 mmHg 69%
    17:00 +18°C° 0.1 mm 2 m/S 760 mmHg 69%
    18:00 +17°C° 0 mm 2 m/S 760 mmHg 76%
    19:00 +15°C° 0 mm 2 m/S 760 mmHg 82%
    20:00 +13°C° 0 mm 1 m/S 760 mmHg 88%
    21:00 +13°C° 0 mm 1 m/S 760 mmHg 89%
    22:00 +12°C° 0 mm 1 m/S 760 mmHg 89%
    23:00 +12°C° 0 mm 1 m/S 760 mmHg 90%

    übermorgen, 27 Mai, Mittwoch

    Zeit Temperatur Niederschläge Wind Luftdruck Luftfeuchtigkeit
    00:00 +12°C° 0 mm 1 m/S 760 mmHg 90%
    01:00 +12°C° 0 mm 2 m/S 760 mmHg 91%
    02:00 +10°C° 0 mm 2 m/S 760 mmHg 91%
    03:00 +10°C° 0 mm 2 m/S 760 mmHg 91%
    04:00 +10°C° 0 mm 3 m/S 760 mmHg 92%
    05:00 +10°C° 0 mm 3 m/S 760 mmHg 92%
    06:00 +12°C° 0 mm 4 m/S 760 mmHg 86%
    07:00 +14°C° 0 mm 4 m/S 760 mmHg 79%
    08:00 +15°C° 0 mm 5 m/S 760 mmHg 73%
    09:00 +16°C° 0 mm 5 m/S 760 mmHg 72%
    10:00 +17°C° 0 mm 5 m/S 760 mmHg 71%
    11:00 +17°C° 0 mm 6 m/S 760 mmHg 69%
    12:00 +17°C° 0.2 mm 6 m/S 760 mmHg 70%
    13:00 +17°C° 0.2 mm 6 m/S 760 mmHg 71%
    14:00 +17°C° 0.2 mm 6 m/S 760 mmHg 72%
    15:00 +17°C° 0.1 mm 5 m/S 760 mmHg 73%
    16:00 +18°C° 0.1 mm 4 m/S 759 mmHg 74%
    17:00 +17°C° 0.1 mm 4 m/S 759 mmHg 76%
    18:00 +16°C° 0 mm 3 m/S 760 mmHg 81%
    19:00 +14°C° 0 mm 2 m/S 760 mmHg 87%
    20:00 +13°C° 0 mm 2 m/S 760 mmHg 93%
    21:00 +13°C° 0 mm 2 m/S 760 mmHg 94%
    22:00 +12°C° 0 mm 2 m/S 760 mmHg 94%
    23:00 +11°C° 0 mm 3 m/S 760 mmHg 95%

    28 Mai, Donnerstag

    Zeit Temperatur Niederschläge Wind Luftdruck Luftfeuchtigkeit
    00:00 +11°C° 0 mm 3 m/S 759 mmHg 95%
    01:00 +11°C° 0 mm 3 m/S 759 mmHg 95%
    02:00 +11°C° 0 mm 3 m/S 759 mmHg 96%
    03:00 +11°C° 0 mm 3 m/S 759 mmHg 95%
    04:00 +10°C° 0 mm 3 m/S 759 mmHg 95%
    05:00 +10°C° 0 mm 3 m/S 759 mmHg 95%
    06:00 +12°C° 0 mm 4 m/S 759 mmHg 90%
    07:00 +13°C° 0 mm 4 m/S 759 mmHg 85%
    08:00 +15°C° 0 mm 4 m/S 759 mmHg 81%
    09:00 +17°C° 0.3 mm 4 m/S 759 mmHg 80%
    10:00 +17°C° 0.3 mm 4 m/S 759 mmHg 80%
    11:00 +18°C° 0.3 mm 3 m/S 759 mmHg 80%
    12:00 +18°C° 0.5 mm 3 m/S 758 mmHg 78%
    13:00 +19°C° 0.5 mm 2 m/S 758 mmHg 76%
    14:00 +19°C° 0.5 mm 2 m/S 758 mmHg 74%
    15:00 +20°C° 0.3 mm 1 m/S 758 mmHg 73%
    16:00 +20°C° 0.3 mm 1 m/S 757 mmHg 72%
    17:00 +20°C° 0.3 mm 1 m/S 757 mmHg 71%
    18:00 +19°C° 0.1 mm 1 m/S 757 mmHg 76%
    19:00 +16°C° 0.1 mm 1 m/S 758 mmHg 81%
    20:00 +15°C° 0.1 mm 2 m/S 758 mmHg 86%
    21:00 +15°C° 0 mm 2 m/S 758 mmHg 87%
    22:00 +14°C° 0 mm 2 m/S 758 mmHg 88%
    23:00 +14°C° 0 mm 2 m/S 758 mmHg 88%

    29 Mai, Freitag

    Zeit Temperatur Niederschläge Wind Luftdruck Luftfeuchtigkeit
    00:00 +12°C° 0 mm 3 m/S 758 mmHg 88%
    01:00 +12°C° 0 mm 3 m/S 758 mmHg 89%
    02:00 +12°C° 0 mm 3 m/S 757 mmHg 89%
    03:00 +11°C° 0 mm 3 m/S 757 mmHg 89%
    04:00 +11°C° 0 mm 3 m/S 758 mmHg 89%
    05:00 +11°C° 0 mm 3 m/S 758 mmHg 89%
    06:00 +13°C° 0 mm 3 m/S 758 mmHg 83%
    07:00 +16°C° 0 mm 3 m/S 758 mmHg 78%
    08:00 +18°C° 0 mm 3 m/S 758 mmHg 72%
    09:00 +19°C° 0.4 mm 2 m/S 758 mmHg 73%
    10:00 +19°C° 0.4 mm 2 m/S 758 mmHg 73%
    11:00 +21°C° 0.4 mm 1 m/S 758 mmHg 73%
    12:00 +21°C° 0.6 mm 1 m/S 758 mmHg 72%
    13:00 +22°C° 0.6 mm 1 m/S 758 mmHg 71%
    14:00 +22°C° 0.6 mm 1 m/S 758 mmHg 71%
    15:00 +20°C° 0.6 mm 2 m/S 758 mmHg 73%
    16:00 +20°C° 0.6 mm 2 m/S 758 mmHg 75%
    17:00 +20°C° 0.6 mm 2 m/S 758 mmHg 77%
    18:00 +18°C° 0.1 mm 2 m/S 758 mmHg 80%
    19:00 +17°C° 0.1 mm 3 m/S 758 mmHg 83%
    20:00 +14°C° 0.1 mm 3 m/S 758 mmHg 86%
    21:00 +15°C° 0 mm 2 m/S 759 mmHg 86%
    22:00 +14°C° 0 mm 2 m/S 759 mmHg 87%
    23:00 +14°C° 0 mm 2 m/S 759 mmHg 87%

    30 Mai, Samstag

    Zeit Temperatur Niederschläge Wind Luftdruck Luftfeuchtigkeit
    00:00 +14°C° 0 mm 2 m/S 759 mmHg 87%
    01:00 +14°C° 0 mm 2 m/S 759 mmHg 87%
    02:00 +14°C° 0 mm 2 m/S 759 mmHg 87%
    03:00 +14°C° 0 mm 2 m/S 759 mmHg 87%
    04:00 +14°C° 0 mm 2 m/S 759 mmHg 87%
    05:00 +13°C° 0 mm 2 m/S 759 mmHg 88%
    06:00 +16°C° 0 mm 1 m/S 759 mmHg 81%
    07:00 +19°C° 0 mm 1 m/S 759 mmHg 74%
    08:00 +19°C° 0 mm 0 m/S 759 mmHg 67%
    09:00 +22°C° 0 mm 1 m/S 760 mmHg 63%
    10:00 +23°C° 0 mm 1 m/S 760 mmHg 59%
    11:00 +24°C° 0 mm 2 m/S 760 mmHg 55%
    12:00 +24°C° 0 mm 2 m/S 760 mmHg 54%
    13:00 +24°C° 0 mm 2 m/S 759 mmHg 54%
    14:00 +25°C° 0 mm 2 m/S 759 mmHg 54%
    15:00 +24°C° 0 mm 2 m/S 759 mmHg 56%
    16:00 +24°C° 0 mm 3 m/S 759 mmHg 59%
    17:00 +24°C° 0 mm 3 m/S 759 mmHg 61%
    18:00 +21°C° 0 mm 3 m/S 759 mmHg 69%
    19:00 +19°C° 0 mm 3 m/S 759 mmHg 77%
    20:00 +17°C° 0 mm 3 m/S 759 mmHg 85%
    21:00 +17°C° 0 mm 3 m/S 759 mmHg 84%
    22:00 +16°C° 0 mm 3 m/S 759 mmHg 82%
    23:00 +16°C° 0 mm 3 m/S 759 mmHg 81%
    Mehr zeigen